Location: Lasqueti Island Observatory
(49.4855°N, 124.2726°W)
Time: 19:42:53
(UTC-07:00)

Daily predictions for brighter satellites

Satellite Brightness Start Highest point End
(mag) Time Altitude Azimuth Time Altitude Azimuth Time Altitude Azimuth
BREEZE-M DEB (TANK) 4.3 20:30:14 10° W 20:34:09 90° NNE 20:49:19 10° E
Cosmos 2322 Rocket 2.9 20:48:30 10° SSE 20:53:21 31° ESE 20:58:14 10° NE
Envisat 3.1 20:49:00 10° SSE 20:54:00 61° ENE 20:59:01 10° N
Cosmos 1302 Rocket 4.0 20:49:22 10° S 20:54:31 65° ESE 20:59:40 10° NNE
Cosmos 1825 2.5 20:53:03 10° N 20:56:47 50° ENE 21:00:28 10° SSE
CZ-2D R/B 4.2 20:58:57 10° S 21:02:45 51° W 21:06:34 10° NNW
Cosmos 2360 Rocket 3.7 21:00:49 10° SE 21:04:06 16° E 21:07:23 10° ENE
Cosmos 1980 Rocket 2.3 20:58:35 10° SSW 21:04:17 90° ESE 21:10:02 10° NNE
Cosmos 2026 Rocket 4.0 21:03:25 10° N 21:09:43 76° E 21:15:53 10° SSE
USA 186 2.7 21:08:25 10° S 21:11:04 43° W 21:13:55 10° NNW
Cosmos 1862 3.6 21:07:21 10° N 21:11:18 51° ENE 21:15:15 10° SSE
Helios 1B rocket 2.4 21:10:50 10° NNE 21:14:55 63° ESE 21:18:59 10° S
ERBS 4.0 21:12:41 10° WNW 21:15:42 28° SW 21:18:42 10° SSE
Lacrosse 4 Rocket 1.7 21:12:19 10° NW 21:16:36 70° WSW 21:20:58 10° SSE
USA 234 3.6 21:10:58 10° SE 21:17:25 61° SW 21:23:54 10° WNW
Cosmos 1707 Rocket 4.1 21:16:27 10° SSW 21:20:52 66° WNW 21:25:17 10° N
SL-16 R/B 2.4 21:15:33 10° S 21:20:58 49° ESE 21:26:25 10° NE
SAR-Lupe-4 4.2 21:18:53 10° S 21:22:25 57° W 21:25:59 10° NNW
Cosmos 1733 Rocket 3.1 21:18:41 10° N 21:23:10 73° E 21:27:36 10° SSE
ATLAS 5 CENTAUR R/B 2.5 21:17:44 10° NW 21:23:32 67° NE 21:29:19 13° SE
Cosmos 1939 Rocket 2.9 21:21:41 10° SSE 21:25:45 84° WSW 21:29:46 10° NNW
ERS-1 Rocket 3.1 21:22:31 10° SSE 21:27:28 61° ENE 21:32:25 10° N
Cosmos 1408 3.1 21:27:43 10° NNW 21:31:25 62° W 21:35:02 10° S
Cosmos 1862 Rocket 3.7 21:29:36 10° S 21:33:57 56° E 21:38:22 10° NNE
Cosmos 1634 Rocket 4.3 21:27:43 10° SSW 21:34:02 77° W 21:40:25 10° N
Cosmos 2278 Rocket 4.1 21:33:15 10° N 21:37:06 18° NE 21:40:57 10° ENE
Cosmos 1655 Rocket 4.1 21:30:48 10° N 21:37:15 85° W 21:43:38 10° S
Abrixas rocket 2.4 21:35:34 10° WSW 21:38:47 51° SSE 21:41:21 15° E
ARGOS 3.7 21:34:29 14° SE 21:38:49 44° ENE 21:43:54 10° N
SeaSat 1 2.7 21:36:49 15° SE 21:40:48 56° NE 21:45:39 10° NNW
Okean 1-7 4.4 21:44:46 18° ESE 21:46:28 22° E 21:49:51 10° NE
Cosmos 1844 Rocket 3.7 21:41:46 10° NNW 21:46:51 34° NE 21:50:44 16° ESE
Cosmos 1992 Rocket 4.0 21:41:49 10° S 21:46:58 62° ESE 21:52:10 10° NNE
CENTAUR R/B 3.8 21:44:15 10° WSW 21:50:25 48° NNW 21:57:28 10° NE
Intercosmos 25 Rocket 3.7 21:47:21 10° SSW 21:50:35 64° WNW 21:54:59 10° N
SL-08 RB Rocket 4.3 21:47:56 18° SE 21:50:53 41° ENE 21:55:10 10° N
Terra 3.4 21:48:56 14° E 21:51:30 21° ENE 21:55:02 10° NNE
Cosmos 2242 Rocket 4.1 21:48:40 10° SSW 21:53:08 62° WNW 21:57:36 10° N
Cosmos 1703 Rocket 4.2 21:51:18 18° SSE 21:54:01 36° E 21:58:04 10° NNE
YAOGAN 11 4.1 21:51:29 17° SSE 21:54:46 68° ENE 21:59:06 10° N
Atlas Centaur 2 4.4 21:51:28 10° SSW 21:55:34 15° SSE 21:56:51 15° SSE
Cosmos 2266 Rocket 4.1 21:51:32 10° N 21:57:46 65° ENE 22:02:48 17° SSE
USA 229 DEB 4.4 21:54:09 10° S 21:59:57 31° ESE 22:05:51 10° NE
USA 229 4.4 21:54:15 10° S 22:00:03 31° ESE 22:05:56 10° NE
Cosmos 2221 Rocket 4.4 21:58:59 22° SE 22:00:54 32° E 22:04:52 10° NNE
YAOGAN 6 3.6 22:05:50 11° S 22:09:11 43° W 22:12:39 10° NNW
Cosmos 2219 Rocket 3.9 22:10:17 14° E 22:10:17 14° E 22:12:41 10° ENE
Cosmos 1867 3.6 22:04:32 10° NW 22:10:01 79° SW 22:13:26 24° SSE
CZ-4C R/B 3.7 22:04:52 10° NW 22:11:07 40° NNE 22:17:19 13° E
MetOp-A 4.2 22:10:00 16° S 22:14:20 78° WSW 22:19:44 10° NNW
Cosmos 2279 Rocket 4.4 22:08:58 10° SSW 22:15:10 64° WNW 22:21:23 10° N
H-2A R/B 2.2 22:14:05 26° SE 22:16:46 55° ENE 22:21:35 10° N
Meteor 1-14 Rocket 4.2 22:11:17 10° N 22:16:57 85° ENE 22:20:57 21° SSE
MOS 1-B Rocket 3.8 22:13:24 20° SSE 22:17:38 81° ENE 22:23:16 10° NNW
USA 267 3.9 22:16:48 10° ENE 22:23:09 56° NNW 22:29:32 10° W
Cosmos 968 Rocket 3.7 22:18:26 10° NNW 22:23:36 66° WSW 22:26:54 22° S
ASTEX 1 4.3 22:23:00 26° ESE 22:24:46 33° ENE 22:29:12 10° N
SPOT 5 2.9 22:22:39 22° S 22:25:46 77° WSW 22:30:25 10° NNW
Cosmos 2263 Rocket 3.3 22:22:24 10° NW 22:27:29 37° WSW 22:31:51 13° S
Sich 1 Rocket 4.2 22:24:01 10° NNW 22:28:23 56° W 22:31:32 18° SSW
Meteor 1-25 Rocket 4.1 22:26:41 10° N 22:32:20 84° ENE 22:35:25 28° SSE
Meteor 2-10 Rocket 3.9 22:29:01 10° SSW 22:34:50 76° WNW 22:40:39 10° N
COSMOS 2428 3.2 22:34:03 31° SE 22:35:39 37° ESE 22:40:51 10° NE
Cosmos 2322 Rocket 3.1 22:31:42 10° SW 22:37:10 51° NW 22:42:41 10° NNE
H-2A R/B 2.2 22:38:13 40° SE 22:39:26 56° ENE 22:43:43 10° N
PSLV R/B 4.4 22:40:52 28° NE 22:40:52 28° NE 22:42:53 10° N
ATLAS 3B R/B 4.4 22:38:23 10° NW 22:44:20 27° NNE 22:50:01 10° ENE
Cosmos 2360 Rocket 2.1 22:41:36 10° SSW 22:47:16 88° ESE 22:52:59 10° NNE
Cosmos 1606 3.2 22:49:05 42° E 22:49:05 42° E 22:52:30 10° NNE
Cosmos 1844 3.8 22:44:11 10° NNW 22:49:53 69° ENE 22:52:07 37° SE
Meteor 1-20 Rocket 4.2 22:46:06 10° NNW 22:51:40 78° W 22:54:26 31° S
Cosmos 1782 Rocket 4.2 22:50:09 10° NNW 22:54:23 49° W 22:56:22 28° SSW
Cosmos 2322 3.6 22:49:46 10° SSW 22:55:30 88° ESE 23:01:15 10° NNE
Cosmos 1633 2.9 22:52:01 10° N 22:55:35 49° ENE 22:55:35 49° ENE
IGS 5A 3.5 22:55:15 53° ESE 22:55:58 63° ENE 23:00:05 10° N
Okean 2 Rocket 3.4 22:53:36 10° NNW 22:58:05 63° W 22:59:45 37° SSW
Cosmos 1300 Rocket 4.1 22:58:05 10° N 23:02:12 40° ENE 23:02:35 39° E
S3M 4.3 23:01:32 37° SE 23:03:13 46° E 23:09:07 10° NNE
SPOT 1/Viking Rocket 4.1 23:01:38 27° SSW 23:04:14 52° W 23:09:21 10° NNW
SL-16 R/B 3.8 23:00:04 10° WSW 23:05:15 36° NW 23:10:29 10° NNE
Cosmos 1782 2.7 23:04:48 68° SSE 23:05:17 82° E 23:09:19 10° NNE
Meteor 2-6 Rocket 4.3 23:04:20 39° SSE 23:06:32 65° E 23:12:26 10° NNE
ATLAS 5 CENTAUR R/B 3.6 23:02:49 10° WNW 23:08:02 32° WSW 23:10:52 23° SSW
Landsat 7 4.1 23:12:13 40° SSW 23:13:43 60° W 23:18:27 10° NNW
Abrixas rocket 3.6 23:12:11 10° W 23:14:02 31° W 23:14:02 31° W
Cosmos 2333 Rocket 2.8 23:16:06 37° ESE 23:16:06 37° ESE 23:21:18 10° NE
Cosmos 2333 4.2 23:15:31 42° S 23:17:24 67° ESE 23:23:08 10° NNE
SeaSat 1 4.0 23:16:36 20° SW 23:18:35 26° WSW 23:22:45 10° NW
Cosmos 1898 Rocket 4.0 23:14:10 10° NNW 23:19:13 48° ENE 23:20:22 41° E
Cosmos 2278 Rocket 2.3 23:16:37 10° NNW 23:22:18 69° ENE 23:23:48 48° ESE
Cosmos 2237 Rocket 3.2 23:23:19 30° E 23:23:19 30° E 23:27:41 10° NE
Okean 1-7 4.1 23:21:37 25° SW 23:23:47 43° WNW 23:28:02 10° N
deb Chang Zheng 4 3.4 23:20:36 10° NNE 23:25:03 85° ESE 23:25:30 71° S
Cosmos 1346 Rocket 3.3 23:27:02 48° NE 23:27:02 48° NE 23:30:14 10° NNE
Terra 2.1 23:27:49 48° SSW 23:28:51 60° WSW 23:33:35 10° NNW
Cosmos 1844 Rocket 3.2 23:25:35 10° NW 23:30:57 50° WSW 23:32:24 40° SSW
Cosmos 2151 Rocket 3.9 23:27:12 10° NNW 23:31:33 58° W 23:32:11 52° SW
Spot 4 3.7 23:31:24 68° SSE 23:32:01 85° ENE 23:36:50 10° NNW
Cosmos 1745 Rocket 3.9 23:26:35 10° N 23:32:56 84° E 23:34:52 48° SSE
Meteor 1-5 Rocket 4.4 23:29:30 10° N 23:35:01 58° ENE 23:36:07 49° ESE
Cosmos 1417 Rocket 4.5 23:33:12 39° SSW 23:35:43 85° W 23:42:08 10° N
Cosmos 1602 4.0 23:33:56 10° NNW 23:37:30 64° WNW 23:37:30 64° WNW
Meteor 1-27 Rocket 3.6 23:37:46 56° S 23:38:58 78° E 23:44:35 10° NNE
CZ-4 R/B 3.7 23:34:27 10° NNE 23:39:15 82° ESE 23:39:45 71° S
CZ-2C R/B 4.2 23:36:38 10° NE 23:40:23 21° E 23:40:23 21° E
DELTA 2 DEB (DPAF) 4.0 23:40:48 79° SSW 23:41:01 83° WSW 23:45:32 10° NNW
Iridium 4 Rocket 2.9 23:36:57 10° N 23:41:03 84° NNW 23:41:03 84° NNW
Meteor 2-11 Rocket 4.3 23:44:12 54° SSE 23:45:34 74° E 23:51:40 10° NNE
NOSS 3-1 (C) 3.4 23:46:08 56° SSE 23:46:48 59° SE 23:53:17 10° NE
USA 229 DEB 3.9 23:43:33 10° SW 23:50:24 73° NW 23:57:27 10° NE
USA 229 3.8 23:43:38 10° SW 23:50:29 74° NW 23:57:31 10° NE
Cosmos 2219 Rocket 2.0 23:51:56 62° S 23:52:55 81° ESE 23:58:35 10° NNE
Cosmos 2084 4.0 23:49:35 10° NW 23:52:28 46° WNW 23:52:28 46° WNW
